Flag for Poland Weather past 2 weeks in Lublin, Poland

Now
33 °F

Passing clouds.


Feels Like: 33 °F
Forecast: 31 / 40 °F
Wind: 2 mph from Northwest

Location: Lublin Radawiec

Current Time: Mar 5, 2015 at 8:01:13 PM

Latest Report: Mar 5, 2015 at 7:00 PM


Visibility: 2 mi

Pressure: 30.41 "Hg

Humidity: 96%

Dew point: 32 °F

Location of LublinLocation

Historic Weather in Lublin — Graph

°F

Lublin temperature yesterday

Maximum temperature yesterday: 38 °F (at 3:00 PM)
Minimum temperature yesterday: 30 °F (at 1:00 AM)
Average temperature yesterday: 34 °F

Past Weeks' High & Low Weather Summary

 TemperatureHumidityPressure
High50 °F (Feb 23, 3:00 PM)100% (Feb 25, 8:00 PM)30.60 "Hg (Feb 25, 8:00 PM)
Low30 °F (Feb 19, 2:00 AM)46% (Feb 20, 3:00 PM)29.53 "Hg (Mar 2, 3:00 PM)
Average38 °F82%29.99 "Hg
* Reported Feb 18 6:00 PM — Mar 5 6:00 PM, Lublin, Weather by CustomWeather, © 2015

Note: Actual official high and low records may vary slightly from our data, if they occured in-between our weather recording intervals... More about our weather records

Advertising

Lublin weather history for previous 24 hours

 ConditionsComfort  
Time TempWeatherWind HumidityBarometerVisibility
6:00 PM
Thu, Mar 5
33 °FSprinkles. Overcast.3 mph95%30.40 "Hg5 mi
5:00 PM33 °FSnow flurries. Overcast.2 mph96%30.38 "Hg2 mi
4:00 PM33 °FOvercast.1 mph96%30.37 "Hg9 mi
3:00 PM38 °FOvercast.7 mph73%30.35 "Hg9 mi
2:00 PM41 °FOvercast.5 mph69%30.32 "Hg11 mi
1:00 PM40 °FOvercast.5 mph71%30.33 "Hg9 mi
12:00 PM39 °FPartly sunny.3 mph75%30.34 "Hg9 mi
11:00 AM39 °FOvercast.3 mph77%30.33 "Hg9 mi
10:00 AM37 °FPartly sunny.3 mph81%30.33 "Hg9 mi
9:00 AM35 °FScattered clouds.3 mph88%30.33 "Hg7 mi
8:00 AM33 °FLight snow. Overcast.5 mph91%30.32 "Hg6 mi
7:00 AM33 °FOvercast.3 mph86%30.31 "Hg7 mi
6:00 AM32 °FOvercast.2 mph87%30.30 "Hg7 mi
5:00 AM32 °FOvercast.2 mph87%30.29 "Hg8 mi
3:00 AM31 °FPassing clouds.3 mph87%30.29 "Hg9 mi
2:00 AM31 °FClear.3 mph86%30.28 "Hg11 mi
1:00 AM32 °FPassing clouds.3 mph84%30.27 "Hg11 mi
12:00 AM32 °FPassing clouds.3 mph84%30.26 "Hg11 mi
11:00 PM
Wed, Mar 4
32 °FClear.3 mph86%30.25 "Hg8 mi
9:00 PM33 °FPassing clouds.2 mph88%30.21 "Hg8 mi
8:00 PM33 °FPassing clouds.2 mph90%30.20 "Hg7 mi
Weather by CustomWeather, © 2015

See weather overviewHow to use our weather pages